SL-14 R/B, 17588

Orbit data source: Space-Track

SL-14 R/B, 17588 is space debris in LEO originally from a launch on Fri, 13 Mar 1987 UTC launched from the Plesetsk Missile And Space Complex (PKMTR). Debris objects in space refer to the collection of defunct objects orbiting the Earth. Examples of debris include non-operational satellites, rocket bodies, and fragments generated from explosions, collisions, or faulty payload assembly.

Loading next visibility...
Identifier
17588, 1987-026G
Orbit
LEO
Country
Flag of CISCIS
Related business
Manufacturer
Yuzhnoe
Mission
Spacecraft
Bus & Motor
S5M, Unknown motor
Mass
1,600 kg wet, 1,600 kg dry
Launch date (UTC)
1987-03-13 (39 years ago)
Launch vehicle
Unknown
Launch site
Plesetsk Missile And Space Complex (PKMTR)
Object type
Payload
Rocket body
Debris
Shape & HBR
Cyl, 1.4 m
Radar Cross Section
7.351 m², Large (>1 m²)

Expand to show TLE details & history
Last TLE update: 20 hours ago

TLE from 20 hours ago
0 SL-14 R/B
1 17588U 87026G   25261.20234389  .00000010  00000-0 -52692-5 0  9990
2 17588  82.5721 156.8510 0039011  49.3265 119.5632 12.55713039765433
Epoch: 2025-09-18T04:51Z
TLE epoch observation values (Epoch: 2025-09-18T04:51:22.512Z)
Latitude
10.58364°
Longitude
-94.74913°
Altitude
1,457.807 km
Speed
7.127 km/s
True Right ascension
22h 21m 50s
True Declination
10° 31' 38"
Sunlit
Object was in full shadow at epoch
Visualization orbit readout
Latitude
Unknown
Longitude
Unknown
Altitude
Unknown
Speed
Unknown
Apparent Right ascension
Unknown
Apparent Declination
Unknown
Sunlit
N/A
Visualization observer readout
Local Sidereal Time
17:27:42
Azimuth
Unknown
Elevation
Unknown
Doppler factor
Unknown
Orbital elements
Apogee altitude
1,468.511 km
Perigee altitude
1,407.528 km
Semi-major axis
7,816.157 km
Eccentricity
0.0039
Inclination
82.5721°
RAAN
156.851°
Arg. of periapsis
49.3265°
True anomaly
119.9511°
Mean anomaly
119.5632°
Eccentric anomaly
119.75724°
Mean motion
3.14089 °/min
Orbital period
114.62 mins
BSTAR
-0.0000052692
Loading maneuver chart data...
Computing Atmospheric mass density...
Loading historical data...
Loading historical data...
Loading historical data...
Loading historical data...
Loading historical data...
Loading historical data...
Loading historical data...

Documentation

Showing up to 5 results
|